Regional Weather Roundup
Issued by NWS

Home | Current Version | Previous Version | Text Only | Print | Product List | Glossary Off
Versions: 1 2 3 4 5 6 7 8 9 10 11 12 13 14 15 16 17 18 19 20 21 22 23 24 25 26 27 28 29 30 31 32 33 34 35 36 37 38 39 40 41 42 43 44 45 46 47 48 49 50

132
ASUS43 KDMX 211506
RWRIA

WEATHER ROUNDUP FOR IOWA
NATIONAL WEATHER SERVICE DES MOINES IA
1000 AM CDT FRI JUL 21 2017

NOTE: "FAIR" INDICATES FEW OR NO CLOUDS BELOW 12,000 FEET WITH NO
SIGNIFICANT WEATHER AND/OR OBSTRUCTIONS TO VISIBILITY.

* - THESE STATIONS ARE NOT NWS STATIONS...THUS NOT UNDER NWS
QUALITY CONTROL.  THEY ALSO DO NOT REPORT WEATHER SUCH
AS PRECIPITATION OR FOG.

IAZ001>003-012>014-020>022-031>034-043>046-211600-
   NORTHWEST IOWA

CITY           SKY/WX    TMP DP  RH WIND       PRES   REMARKS
CARROLL *      MOSUNNY   79  73  83 SE7       29.86F HX  82
CHEROKEE *     CLOUDY    76  74  93 NE7       29.88R
DENISON *      CLOUDY    84  75  74 SE9G17    29.85F HX  92
ORANGE CITY *  LGT RAIN  72  72 100 E6        29.88F
SHELDON *      LGT RAIN  72  70  94 E9        29.87F
SIOUX CITY     CLOUDY    81  74  79 SE7       29.81F HX  86
SPENCER        LGT RAIN  74  72  93 NE7       29.91R
STORM LAKE *   CLOUDY    77  73  88 NE9       29.89R
$$

IAZ055>058-069>071-079>083-090>094-211600-
   SOUTHWEST IOWA

CITY           SKY/WX    TMP DP  RH WIND       PRES   REMARKS
ATLANTIC *     SUNNY     86  73  66 S13       29.85F HX  93
AUDUBON *      MOSUNNY   84  75  74 S8        29.87F HX  92
CLARINDA *     SUNNY     86  77  74 S9G16     29.90F HX  97
COUNCIL BLFS * SUNNY     86  73  66 S16       29.82F HX  93
CRESTON *      SUNNY     86  73  66 SW13      29.92F HX  93
HARLAN  *      CLOUDY    84  75  74 S10       29.87F HX  92
LAMONI         SUNNY     86  75  69 S15       29.93S HX  95
RED OAK *      SUNNY     86  75  70 S10       29.86F HX  95
SHENANDOAH *   SUNNY     86  73  66 SW10G18   29.87S HX  93
$$

IAZ047>049-059>061-072>074-084-211600-
   CENTRAL IOWA

CITY           SKY/WX    TMP DP  RH WIND       PRES   REMARKS
AMES           CLOUDY    79  78  97 NE5       29.91S HX  83
ANKENY *       CLOUDY    84  77  79 SE6       29.90S HX  94
BOONE *        CLOUDY    77  75  94 NE7       29.91R
CHARITON *     SUNNY     88  73  62 S13       29.92S HX  96
DES MOINES     CLOUDY    86  76  71 S12       29.89F HX  96
GRINNELL*      CLOUDY    79  74  83 SE9       29.95F HX  83
KNOXVILLE *    CLOUDY    84  75  74 S9        29.91S HX  92
MARSHALLTOWN   CLOUDY    76  74  93 E6        29.94R
NEWTON *       CLOUDY    81  75  83 SE10      29.92F HX  86
PELLA *        PTSUNNY   82  74  77 SE3       29.94S HX  88
$$

IAZ004>006-015-016-023>025-035-036-211600-
   NORTH CENTRAL IOWA

CITY           SKY/WX    TMP DP  RH WIND       PRES   REMARKS
ALGONA *       DRIZZLE   73  73 100 E12       29.92F
CLARION *      CLOUDY    73  73 100 E12G20    29.96R
ESTHERVILLE    LGT RAIN  72  72 100 SE6       29.90F
FORT DODGE *   CLOUDY    73  70  88 E17       29.92F THUNDER
MASON CITY     LGT RAIN  72  70  93 SE9       30.01R FOG
FOREST CITY *  LGT RAIN  72  72 100 E13       29.95F
WEBSTER CITY * LGT RAIN  75  73  94 E16       29.90F
IOWA FALLS *   CLOUDY    76  72  86 E5        29.99R
$$

IAZ007>011-017>019-026>030-037>042-050>054-066-211600-
   NORTHEAST IOWA

CITY           SKY/WX    TMP DP  RH WIND       PRES   REMARKS
CEDAR RAPIDS   MOSUNNY   79  75  87 S13G20    29.94F HX  83
CHARLES CITY * HVY RAIN  72  72 100 E9        30.02R
CLINTON *      CLOUDY    75  73  93 SE9       29.98S
DECORAH *      DRIZZLE   70  68  94 VRB7G16   29.99F
DUBUQUE        PTSUNNY   73  70  90 CALM      29.99R
MONTICELLO *   CLOUDY    75  72  88 N6        29.97R
OELWEIN *      MOSUNNY   72  72 100 CALM      29.96F
WATERLOO       CLOUDY    76  67  73 E6        29.95F
$$

IAZ064-065-067-068-078-211600-
   EAST CENTRAL IOWA

CITY           SKY/WX    TMP DP  RH WIND       PRES   REMARKS
DAVENPORT      PTSUNNY   77  72  84 S8        30.00S
IOWA CITY      MOSUNNY   80  73  79 SE14      29.96F HX  84
MT. PLEASANT * SUNNY     85  75  71 S9        29.96F HX  93
MUSCATINE *    MOSUNNY   79  72  78 SE8G14    29.97F HX  82
QUAD CITIES    MOSUNNY   79  71  76 S6        29.98S HX  82
$$

IAZ062-063-075>077-085>089-095>099-211600-
   SOUTHEAST IOWA

CITY           SKY/WX    TMP DP  RH WIND       PRES   REMARKS
BURLINGTON     CLOUDY    85  76  74 S9        29.97S HX  94
FAIRFIELD *    CLOUDY    84  75  74 SE9       29.95F HX  92
FORT MADISON * SUNNY     84  79  84 S10       29.97F HX  96
KEOKUK *       MOSUNNY   86  79  79 SE7G14    29.96F HX  99
OSKALOOSA *      N/A     84  75  72 S10       29.93F HX  92
CENTERVILLE *    N/A     88  75  66 CALM      29.96S HX  97
OTTUMWA        CLOUDY    85  75  72 S8        29.94S HX  93
WASHINGTON *   CLOUDY    82  77  83 SE9       29.98F HX  91
$$

ABBREVIATIONS USED IN REMARKS
   TC - TEMPERATURES IN CELSIUS
  WCI - WIND CHILL INDEX
   HX - HEAT INDEX
  VSB - VISIBILITY
$$





USA.gov is the U.S. government's official web portal to all federal, state and local government web resources and services.